Wind_Speed
8 7 6 5 4 4 4 4 5 5 6 7 7 6 5 5 4 3 2 1 0 1 2 3 5 5 6 7 8 8 9 9 9 9 9 10 10 10 10 11 11 11 11 11 11 11 11 10 10
10 8 7 6 5 4 4 4 5 6 6 6 6 6 5 4 4 3 2 1 1 1 3 4 5 5 6 7 7 8 9 9 9 9 10 10 10 11 11 12 12 12 12 12 12 12 12 11 11
11 10 8 7 6 6 5 5 5 6 5 5 6 5 5 4 4 3 2 1 1 2 3 4 4 5 6 7 7 8 8 8 9 9 10 11 11 12 12 12 13 13 12 12 12 12 12 11 11
12 12 10 9 7 6 5 5 5 6 6 6 6 5 4 4 3 3 2 1 1 2 3 4 5 6 6 7 8 8 8 8 9 10 11 11 11 12 12 12 12 12 12 13 12 12 12 11 10
14 12 11 10 8 7 5 5 6 7 7 7 7 6 4 3 2 2 2 0 1 2 3 5 6 6 6 7 8 8 8 9 9 10 10 11 11 12 12 12 12 12 12 12 12 11 11 10 10
14 14 12 10 8 6 5 5 5 7 7 7 6 5 4 3 2 2 1 1 2 2 4 5 6 6 7 7 7 8 8 9 10 10 11 11 11 12 12 13 13 12 12 11 11 11 11 10 10
16 14 13 12 10 8 6 5 5 7 8 8 7 5 5 3 2 1 1 1 2 3 4 5 6 6 6 7 7 8 8 9 10 11 11 12 12 12 13 13 13 12 12 12 11 11 11 11 10
17 15 14 13 11 9 8 7 7 8 8 8 7 6 5 3 1 1 2 2 3 4 5 5 6 6 6 7 8 8 9 10 11 11 12 12 12 13 13 13 12 12 12 12 12 11 11 11 10
18 17 15 14 13 11 9 8 8 8 9 8 7 6 4 3 2 2 2 3 3 4 4 5 5 6 7 7 8 9 10 10 11 12 12 13 13 13 13 13 13 13 12 12 12 11 11 11 11
19 18 16 15 14 12 10 9 8 9 8 8 8 7 5 3 3 3 3 3 3 4 4 5 6 7 7 7 8 9 10 10 11 12 12 13 13 13 13 13 13 12 12 12 12 11 11 11 11
20 19 16 15 14 12 11 10 10 9 8 8 8 7 5 4 3 3 3 4 4 4 5 5 6 6 7 7 9 10 10 11 11 12 13 13 13 13 13 12 12 12 12 12 12 12 12 11 11
20 19 17 15 14 13 12 11 9 9 8 8 8 6 4 3 3 2 3 4 3 4 4 5 6 6 6 7 9 10 10 11 11 12 13 13 13 14 13 12 13 13 13 13 13 12 12 11 11
21 19 18 16 14 14 13 12 10 9 9 7 6 5 4 4 3 3 3 3 3 3 4 5 5 5 6 7 8 9 10 11 11 12 12 13 14 14 14 13 14 14 14 14 13 13 12 11 10
23 22 20 18 16 14 13 12 11 10 9 8 6 6 5 4 4 2 2 3 3 3 3 4 4 5 6 7 7 9 10 10 11 12 13 13 14 14 14 15 15 15 15 14 14 13 12 10 9
25 23 21 19 17 16 14 13 12 10 9 8 6 5 5 5 4 3 2 2 2 2 3 3 3 4 5 6 7 8 9 10 11 12 13 13 14 15 15 16 16 16 16 15 15 13 12 10 9
25 24 23 20 18 17 16 13 12 11 9 8 7 6 6 6 4 3 2 2 2 2 2 2 2 3 4 5 6 8 9 10 11 12 13 13 14 15 16 16 17 17 16 15 15 13 12 11 9
26 24 23 21 20 18 16 14 11 11 10 9 8 7 6 5 4 3 3 2 2 2 1 1 2 2 3 5 7 8 9 10 11 12 13 14 15 16 16 17 17 17 17 16 15 13 12 11 9
25 24 23 22 21 18 16 14 12 11 11 10 9 8 7 6 5 4 3 3 2 2 1 0 1 2 4 5 7 8 9 10 11 12 13 14 15 16 17 18 18 18 18 17 15 14 12 11 9
25 25 24 22 21 19 17 15 13 12 11 11 10 9 7 6 6 5 4 3 2 2 1 1 1 2 4 6 8 9 10 11 12 13 14 15 15 16 18 19 19 19 18 17 16 14 13 12 10
26 26 25 23 21 20 18 17 15 14 12 11 10 10 9 8 6 6 5 4 3 2 2 1 2 3 5 6 8 9 10 11 13 14 14 15 16 17 18 19 20 20 18 17 17 15 14 13 11
26 25 24 23 22 20 19 18 16 15 14 12 11 11 10 8 8 7 6 5 4 3 2 2 2 4 5 6 7 9 10 11 13 14 15 15 16 18 19 19 20 20 19 18 18 16 15 14 12
25 25 24 23 22 21 20 18 17 16 15 13 12 11 11 10 9 8 7 6 6 4 3 3 3 4 4 6 7 9 10 11 13 14 15 16 17 18 19 20 20 20 20 19 19 17 16 15 13
25 24 23 23 22 21 20 20 19 18 16 14 13 12 11 11 10 9 8 7 7 5 5 4 3 3 4 5 7 8 10 11 12 14 15 16 16 17 18 19 20 20 20 20 20 19 18 16 14
25 24 23 23 23 22 21 20 19 18 17 15 14 13 12 11 11 10 9 8 8 7 6 4 3 3 3 5 6 8 9 10 12 13 14 15 16 17 18 19 20 20 20 20 21 20 19 18 16
26 25 24 23 23 21 20 20 18 18 17 16 14 13 13 12 11 11 9 9 8 7 6 4 3 2 3 4 6 7 8 10 11 12 13 15 15 16 17 18 19 19 19 20 20 20 20 19 17
25 24 24 23 21 20 20 19 18 17 16 15 14 13 13 12 11 11 10 9 9 8 7 5 3 2 2 3 4 6 7 9 10 11 12 14 15 16 16 17 18 19 19 19 20 20 20 20 19
24 23 22 21 20 20 21 19 17 16 16 14 13 13 13 12 11 11 10 9 9 8 7 5 4 2 1 1 3 5 6 8 9 10 11 13 14 15 16 16 17 18 18 19 19 19 20 20 19
22 22 22 21 20 20 20 18 15 15 14 14 14 13 13 12 12 11 10 10 9 9 8 6 5 3 1 0 2 4 5 7 8 9 10 12 13 14 15 16 17 17 18 18 19 19 19 19 19
21 20 20 19 18 18 17 15 15 14 14 14 13 13 12 12 12 11 11 10 10 9 8 7 5 4 2 2 3 4 5 6 8 9 10 11 12 13 14 15 16 17 17 18 19 19 19 19 19
20 19 20 19 17 17 16 14 15 14 14 13 13 13 13 12 12 11 11 11 10 10 8 7 6 4 3 3 3 4 5 6 8 9 10 11 11 12 13 15 15 16 17 18 18 18 19 19 19
Wind_Direction
235 237 237 237 238 235 229 222 210 192 193 190 190 180 178 187 190 193 197 200 305 344 349 341 333 333 336 337 338 339 337 336 334 335 335 333 331 329 327 326 323 320 317 314 313 312 309 304 299
234 236 234 232 232 226 224 218 210 191 175 175 178 178 183 190 189 182 192 217 278 327 330 330 330 328 331 333 333 334 334 332 332 333 333 331 329 328 326 323 321 320 317 313 312 310 308 304 300
231 233 233 229 222 224 223 219 214 192 186 173 167 171 178 183 173 169 184 234 296 323 325 328 332 328 329 331 332 333 332 331 330 331 331 329 328 327 325 323 322 320 316 312 310 310 308 303 300
235 234 231 223 221 225 229 222 199 192 182 172 170 172 167 167 172 178 195 260 314 324 325 328 329 326 327 329 330 330 330 330 329 329 329 328 328 328 325 323 321 318 315 311 310 310 308 304 300
234 234 230 228 227 228 222 218 200 182 172 169 171 181 177 172 184 195 200 254 319 324 324 325 326 324 325 328 329 328 329 328 327 329 329 329 329 328 324 321 320 318 315 312 310 310 308 306 301
233 232 231 230 226 225 216 207 202 188 183 178 178 184 177 172 162 170 209 283 305 314 320 320 323 326 326 326 326 330 329 328 328 330 329 329 328 327 324 320 318 317 315 312 310 308 307 307 302
232 229 229 225 221 215 210 205 204 195 185 179 179 183 174 168 165 158 243 275 300 312 318 320 326 329 329 330 331 331 329 330 329 329 330 329 328 326 324 321 319 317 314 312 311 308 306 305 303
228 229 230 227 221 215 213 212 206 200 194 185 179 181 175 176 183 219 256 292 310 320 324 327 330 332 331 331 332 331 332 332 331 330 330 329 327 327 326 325 322 320 317 314 312 308 305 303 299
227 228 229 229 225 218 217 217 213 208 198 192 183 185 188 188 207 238 275 303 320 327 329 330 330 331 329 330 333 333 333 334 334 333 332 332 331 330 330 328 326 321 318 316 313 310 305 301 296
227 227 226 226 223 219 219 218 210 197 191 193 190 190 196 199 215 245 277 305 319 325 328 330 331 331 332 336 338 336 335 337 337 337 337 337 337 336 333 331 329 326 322 320 316 312 307 302 297
225 224 226 223 220 222 224 219 213 205 196 187 188 190 192 206 229 253 280 306 314 320 323 326 331 335 340 342 340 336 337 339 339 341 341 342 342 341 337 336 335 333 329 324 320 316 310 302 296
222 223 223 222 221 221 219 218 214 208 208 196 185 187 191 208 224 250 284 300 306 316 320 322 331 338 341 341 338 338 340 342 343 345 346 348 348 348 346 344 344 342 338 332 326 321 314 306 297
218 220 221 219 220 217 216 211 208 207 200 194 194 202 209 221 228 249 279 291 302 312 316 319 331 338 340 341 339 341 343 346 348 349 348 349 349 351 351 349 348 346 343 339 336 330 321 311 303
218 219 217 218 219 222 218 211 208 209 201 195 196 208 221 229 232 256 285 290 299 313 315 314 325 332 336 340 341 346 349 351 352 352 352 352 353 355 355 355 352 349 346 344 341 337 331 322 313
216 216 213 212 214 216 210 207 206 200 199 201 203 213 232 232 235 255 274 278 287 297 298 307 319 327 338 345 350 352 355 356 356 357 357 357 357 358 357 356 354 352 350 347 345 343 340 335 325
214 213 212 208 210 212 208 207 205 199 200 203 208 214 226 228 225 230 238 256 266 273 279 299 314 332 347 356 360 360 1 360 359 359 359 359 359 360 359 358 357 356 354 351 351 350 347 344 337
212 211 210 208 209 206 205 203 204 198 200 203 209 212 216 220 217 216 222 237 253 256 252 295 329 353 10 12 10 9 8 5 2 2 1 360 1 2 2 2 2 1 359 358 358 357 357 356 353
211 212 208 205 203 201 202 201 204 203 200 203 208 211 213 211 217 217 222 232 235 237 226 291 355 20 27 23 18 16 15 11 9 8 7 6 6 5 6 6 6 6 7 8 7 7 6 6 5
209 210 207 205 205 202 201 202 203 203 203 204 208 210 211 214 216 217 224 227 217 213 173 119 62 40 37 33 27 23 20 19 18 16 15 13 11 11 10 10 10 11 12 14 14 13 11 12 11
206 205 204 205 205 202 204 203 203 205 204 205 210 212 216 214 214 217 215 210 200 193 163 123 82 60 51 43 33 26 24 23 22 20 19 19 18 17 17 15 14 15 16 17 18 18 18 16 15
201 201 201 204 203 204 206 205 207 204 204 208 211 214 216 214 213 213 209 201 193 187 163 134 101 76 62 49 36 28 24 23 23 23 23 23 21 20 20 19 18 19 20 20 20 20 20 19 21
199 200 201 202 202 205 207 206 206 204 205 208 210 212 213 213 211 207 204 199 191 181 166 146 119 91 69 49 37 31 27 27 26 25 24 24 23 21 21 21 21 22 23 24 23 22 22 23 27
198 200 202 202 203 206 206 207 204 204 207 207 209 210 211 208 205 201 202 199 190 178 168 153 129 98 70 50 41 35 32 29 27 26 25 25 24 23 23 22 24 24 25 26 27 26 25 25 28
198 198 200 202 204 205 204 204 201 203 202 202 204 204 204 198 198 199 201 196 186 179 171 157 136 107 71 51 42 36 32 29 27 26 25 25 24 23 23 22 23 24 26 27 28 29 27 28 29
196 197 200 202 203 201 201 202 200 201 199 199 200 201 201 202 199 197 198 193 187 183 176 168 156 128 76 51 40 34 30 28 26 26 24 24 23 22 22 22 22 23 25 26 27 27 27 28 28
194 198 202 204 204 203 204 201 198 201 200 199 200 201 203 201 197 195 196 195 193 189 185 184 175 149 90 47 33 29 26 26 25 24 23 22 21 20 21 22 23 24 24 25 25 25 24 24 25
193 198 203 204 206 206 207 203 203 205 204 204 204 203 202 201 198 197 199 198 195 193 192 191 189 182 132 38 27 20 20 19 19 19 19 19 18 18 20 21 22 23 23 23 23 22 21 20 21
194 196 201 203 202 205 205 204 206 210 208 208 206 205 206 205 202 201 201 198 195 195 195 195 198 199 201 349 359 1 3 6 9 11 12 13 12 13 15 17 18 19 19 19 19 19 18 17 17
198 200 200 200 204 203 199 197 202 211 214 214 211 209 207 206 203 200 197 197 196 197 198 198 203 211 232 281 318 337 347 355 358 360 1 3 4 6 8 10 12 14 14 13 13 14 14 13 12
199 201 204 206 205 205 201 196 207 215 217 214 212 208 205 204 202 199 197 198 198 199 201 202 210 224 245 272 296 317 330 339 345 347 349 351 354 357 359 2 4 5 5 5 6 5 6 7 6
Height
5871 5872 5873 5875 5876 5876 5875 5876 5876 5876 5877 5878 5879 5880 5881 5883 5885 5888 5886 5885 5885 5886 5886 5885 5885 5884 5883 5882 5881 5880 5879 5878 5877 5876 5875 5874 5873 5872 5871 5870 5869 5868 5867 5866 5866 5865 5865 5865 5865
5871 5872 5873 5874 5875 5875 5876 5875 5876 5877 5877 5878 5879 5880 5881 5883 5884 5885 5885 5885 5885 5885 5885 5885 5884 5883 5883 5882 5881 5880 5879 5878 5877 5876 5874 5873 5872 5871 5870 5869 5867 5866 5865 5865 5864 5864 5863 5863 5863
5869 5871 5873 5874 5874 5875 5876 5876 5876 5877 5877 5878 5879 5880 5881 5882 5883 5884 5884 5885 5885 5885 5885 5884 5884 5883 5882 5881 5880 5879 5878 5877 5876 5875 5874 5872 5871 5870 5869 5867 5866 5865 5864 5863 5862 5862 5861 5861 5861
5869 5871 5872 5874 5874 5875 5875 5876 5876 5876 5877 5878 5879 5881 5881 5882 5883 5884 5884 5885 5885 5885 5884 5884 5883 5882 5882 5881 5880 5879 5877 5876 5875 5874 5873 5872 5870 5869 5868 5866 5865 5864 5863 5861 5861 5860 5859 5859 5858
5867 5869 5871 5872 5873 5874 5875 5875 5875 5876 5877 5878 5880 5880 5881 5882 5883 5883 5884 5885 5885 5885 5884 5883 5883 5882 5881 5880 5879 5878 5877 5875 5874 5873 5872 5871 5869 5868 5866 5865 5864 5862 5861 5860 5859 5858 5857 5857 5856
5866 5868 5870 5871 5873 5874 5875 5875 5875 5876 5877 5878 5880 5881 5881 5882 5883 5883 5884 5884 5884 5884 5884 5883 5882 5881 5880 5879 5878 5877 5876 5875 5874 5872 5871 5870 5868 5867 5865 5864 5862 5861 5859 5858 5857 5856 5855 5854 5854
5865 5867 5868 5870 5872 5873 5875 5875 5876 5876 5877 5878 5880 5880 5881 5882 5883 5883 5884 5884 5884 5884 5883 5882 5882 5881 5880 5879 5878 5877 5876 5874 5873 5872 5870 5869 5867 5865 5864 5862 5860 5859 5857 5856 5855 5854 5853 5852 5852
5863 5866 5867 5869 5871 5873 5874 5874 5875 5876 5877 5879 5879 5880 5881 5882 5883 5883 5884 5884 5884 5883 5883 5882 5881 5880 5879 5878 5877 5876 5875 5874 5872 5871 5869 5868 5866 5864 5862 5860 5858 5857 5855 5854 5852 5851 5850 5850 5849
5861 5865 5866 5867 5869 5871 5872 5874 5874 5875 5876 5878 5879 5880 5881 5882 5883 5883 5883 5884 5883 5883 5882 5881 5881 5880 5879 5878 5877 5876 5875 5873 5872 5870 5869 5867 5865 5863 5861 5859 5857 5855 5853 5852 5850 5849 5848 5847 5846
5859 5861 5864 5866 5868 5870 5871 5873 5874 5875 5876 5877 5878 5880 5881 5882 5883 5883 5883 5883 5883 5882 5882 5881 5880 5879 5878 5878 5877 5876 5874 5873 5871 5870 5868 5866 5864 5861 5859 5857 5855 5853 5851 5850 5848 5847 5845 5844 5844
5856 5859 5861 5864 5866 5868 5870 5872 5873 5874 5875 5876 5878 5879 5880 5881 5882 5882 5882 5882 5882 5882 5881 5880 5880 5879 5878 5877 5876 5875 5874 5872 5871 5869 5867 5865 5863 5860 5858 5856 5854 5851 5849 5848 5846 5844 5843 5842 5841
5854 5857 5859 5862 5864 5867 5869 5871 5872 5874 5875 5876 5877 5879 5880 5881 5881 5882 5882 5881 5881 5881 5880 5880 5879 5879 5878 5877 5876 5875 5873 5872 5870 5868 5866 5864 5862 5859 5857 5855 5852 5850 5848 5846 5844 5842 5840 5839 5838
5851 5854 5857 5860 5863 5865 5868 5869 5871 5873 5874 5876 5877 5878 5879 5880 5881 5881 5881 5881 5881 5880 5880 5880 5879 5878 5878 5877 5876 5875 5873 5871 5870 5868 5866 5864 5861 5859 5856 5854 5851 5849 5846 5844 5841 5839 5837 5836 5835
5848 5851 5855 5858 5861 5863 5866 5868 5870 5872 5873 5875 5876 5878 5879 5880 5880 5881 5881 5881 5880 5880 5880 5879 5879 5878 5878 5877 5876 5874 5873 5871 5869 5868 5866 5863 5861 5858 5856 5853 5850 5847 5845 5842 5840 5837 5835 5834 5832
5845 5849 5853 5856 5859 5861 5865 5867 5869 5870 5872 5874 5876 5877 5878 5879 5879 5880 5880 5880 5880 5880 5880 5879 5879 5878 5878 5877 5876 5874 5873 5871 5869 5867 5865 5863 5861 5858 5855 5852 5849 5846 5843 5841 5838 5835 5833 5832 5830
5842 5846 5850 5854 5857 5860 5864 5866 5867 5869 5871 5873 5874 5876 5877 5878 5878 5879 5880 5880 5880 5880 5880 5880 5879 5878 5878 5877 5876 5874 5873 5871 5869 5867 5865 5863 5860 5858 5855 5852 5849 5845 5842 5839 5836 5834 5832 5830 5828
5840 5844 5848 5852 5855 5858 5861 5864 5866 5868 5870 5872 5873 5875 5876 5877 5877 5878 5879 5880 5880 5880 5880 5879 5879 5878 5878 5877 5876 5874 5873 5871 5869 5867 5865 5863 5860 5857 5854 5851 5848 5845 5841 5838 5835 5832 5830 5829 5827
5838 5842 5846 5850 5853 5856 5859 5862 5865 5867 5868 5871 5873 5874 5875 5876 5877 5878 5878 5879 5879 5880 5879 5879 5879 5879 5878 5877 5876 5875 5873 5871 5869 5867 5865 5863 5860 5857 5854 5851 5848 5844 5841 5838 5835 5832 5830 5828 5826
5835 5839 5843 5848 5851 5855 5857 5860 5863 5865 5867 5869 5871 5873 5874 5875 5876 5877 5878 5878 5879 5879 5879 5879 5879 5879 5878 5877 5876 5875 5873 5872 5870 5868 5865 5863 5860 5857 5854 5851 5848 5844 5841 5838 5835 5833 5830 5828 5826
5832 5836 5841 5846 5849 5853 5855 5859 5861 5864 5866 5868 5870 5872 5873 5875 5876 5877 5877 5878 5878 5879 5879 5879 5879 5879 5878 5877 5876 5875 5874 5872 5870 5868 5866 5864 5861 5858 5855 5852 5849 5845 5842 5839 5836 5833 5831 5829 5827
5830 5834 5839 5843 5847 5850 5854 5857 5860 5862 5865 5867 5869 5870 5872 5874 5875 5876 5877 5877 5878 5879 5879 5879 5879 5879 5878 5878 5877 5876 5874 5873 5871 5869 5867 5864 5862 5859 5856 5853 5850 5846 5843 5840 5837 5834 5832 5830 5828
5828 5832 5837 5841 5845 5848 5853 5855 5859 5861 5863 5866 5868 5869 5871 5873 5874 5875 5876 5877 5878 5879 5879 5879 5879 5879 5879 5878 5877 5876 5875 5873 5872 5870 5868 5865 5863 5860 5857 5854 5851 5848 5844 5841 5838 5835 5833 5831 5829
5826 5830 5835 5839 5843 5847 5850 5854 5857 5859 5862 5864 5866 5868 5870 5872 5873 5874 5875 5876 5877 5878 5879 5879 5880 5879 5879 5878 5878 5877 5876 5874 5872 5870 5868 5866 5864 5861 5858 5855 5852 5849 5846 5843 5840 5837 5834 5832 5830
5824 5829 5833 5837 5841 5845 5848 5851 5855 5857 5860 5862 5864 5866 5868 5870 5872 5873 5874 5875 5876 5878 5878 5879 5879 5880 5879 5879 5878 5878 5876 5875 5873 5871 5869 5867 5865 5862 5860 5857 5854 5851 5848 5845 5842 5839 5836 5834 5832
5823 5828 5832 5835 5839 5843 5846 5849 5854 5856 5858 5860 5862 5864 5866 5868 5870 5872 5873 5874 5876 5877 5878 5879 5879 5880 5879 5879 5879 5878 5877 5875 5874 5872 5870 5868 5866 5864 5861 5858 5855 5852 5849 5847 5844 5841 5838 5836 5834
5822 5827 5832 5836 5839 5842 5845 5848 5853 5854 5856 5859 5861 5863 5865 5867 5869 5870 5872 5874 5875 5876 5877 5878 5879 5879 5879 5879 5879 5878 5877 5876 5874 5873 5871 5869 5867 5865 5862 5859 5857 5854 5851 5848 5845 5843 5840 5838 5836
5821 5826 5830 5834 5837 5841 5843 5847 5851 5853 5855 5858 5860 5862 5864 5866 5867 5869 5871 5872 5874 5875 5877 5878 5879 5879 5879 5879 5879 5878 5878 5876 5875 5873 5871 5870 5868 5865 5863 5860 5858 5855 5852 5850 5847 5844 5842 5839 5837
5821 5825 5829 5832 5835 5839 5842 5846 5850 5852 5854 5857 5858 5860 5862 5864 5866 5868 5869 5871 5873 5874 5876 5877 5878 5879 5879 5879 5879 5878 5877 5876 5875 5873 5872 5870 5868 5866 5864 5861 5859 5856 5854 5851 5848 5846 5843 5840 5838
5821 5824 5827 5831 5834 5838 5841 5847 5849 5851 5853 5855 5857 5858 5860 5862 5864 5866 5868 5870 5872 5873 5875 5876 5877 5878 5878 5878 5878 5877 5877 5876 5875 5873 5872 5870 5868 5866 5864 5862 5859 5857 5854 5852 5849 5846 5844 5841 5839
5819 5822 5826 5830 5834 5837 5841 5848 5847 5849 5851 5853 5855 5857 5859 5861 5863 5865 5866 5869 5870 5872 5873 5874 5875 5876 5876 5877 5877 5876 5876 5875 5874 5872 5871 5869 5868 5866 5864 5861 5859 5857 5854 5852 5849 5846 5844 5841 5839